1486213200.71,54149,10.56,72496.3,-0.69,-18.11,-15.85,0,*62
1486213201.96,54150,10.56,72492.0,-0.71,-18.73,-16.13,0,*6B
1486213203.21,54151,10.56,72498.0,-0.71,-19.31,-16.79,0,*61
1486213204.45,54152,10.56,72498.3,-0.71,-20.05,-17.25,0,*67
1486213205.67,54153,10.56,72498.0,-0.69,-20.29,-17.97,0,*68
1486213206.93,54154,10.56,72500.3,-0.69,-19.65,-17.55,0,*63
1486213208.14,54155,10.56,72498.8,-0.69,-20.09,-17.93,0,*68
1486213209.33,54156,10.56,72496.5,-0.69,-20.29,-18.17,0,*6A
1486213210.58,54157,10.56,72500.5,-0.71,-20.25,-17.97,0,*69
1486213211.82,54158,10.56,72502.8,-0.71,-20.09,-17.79,0,*68
1486213213.07,54159,10.56,72498.0,-0.71,-20.69,-17.93,0,*6B
1486213214.32,54160,10.56,72502.3,-0.69,-20.99,-18.31,0,*60
1486213215.58,54161,10.56,72498.5,-0.69,-21.83,-19.61,0,*6F
1486213216.8,54162,10.56,72496.0,-0.69,-21.23,-19.17,0,*67
1486213218.02,54163,10.56,72498.3,-0.69,-21.63,-19.23,0,*65
1486213219.22,54164,10.56,72496.8,-0.69,-21.93,-19.51,0,*68
1486213220.46,54165,10.56,72496.3,-0.71,-22.87,-20.89,0,*69
1486213221.7,54166,10.56,72494.3,-0.71,-23.29,-21.09,0,*66
1486213222.95,54167,10.56,72496.3,-0.73,-23.65,-21.53,0,*62
1486213224.17,54168,10.56,72498.0,-0.73,-23.19,-21.13,0,*62
1486213225.42,54169,10.56,72498.8,-0.73,-22.31,-20.79,0,*65
1486213226.63,54170,10.56,72496.5,-0.73,-22.93,-20.89,0,*6A
1486213227.86,54171,10.56,72498.3,-0.73,-22.83,-21.23,0,*6B
1486213229.09,54172,10.56,72492.8,-0.73,-22.53,-21.53,0,*62
1486213230.33,54173,10.56,72494.8,-0.73,-22.17,-20.89,0,*65
1486213231.59,54174,10.56,72498.8,-0.71,-22.77,-21.17,0,*60
1486213232.79,54175,10.56,72496.5,-0.73,-22.37,-20.89,0,*61
1486213234.03,54176,10.56,72496.3,-0.75,-22.37,-20.89,0,*64
1486213235.29,54177,10.56,72496.0,-0.75,-22.31,-20.63,0,*67
1486213236.52,54178,10.56,72494.3,-0.75,-22.67,-20.93,0,*64
1486213237.78,54179,10.56,72498.3,-0.75,-22.31,-20.73,0,*68
1486213238.99,54180,10.56,72494.5,-0.77,-22.53,-20.63,0,*69
1486213240.22,54181,10.56,72498.0,-0.75,-22.63,-20.89,0,*6D
1486213241.42,54182,10.56,72496.3,-0.77,-23.13,-21.09,0,*63
1486213242.65,54183,10.56,72496.3,-0.75,-22.83,-20.93,0,*6A
1486213243.88,54184,10.56,72496.3,-0.77,-22.97,-21.27,0,*64
1486213245.11,54185,10.56,72496.3,-0.77,-22.11,-20.83,0,*64
1486213246.33,54186,10.56,72496.5,-0.77,-22.41,-20.79,0,*67
1486213247.56,54187,10.56,72494.5,-0.77,-22.83,-20.99,0,*66
1486213248.79,54188,10.56,72496.0,-0.77,-23.19,-21.17,0,*6C
1486213250.04,54189,10.56,72498.5,-0.79,-23.03,-21.09,0,*67
1486213251.32,54190,10.56,72494.8,-0.79,-23.03,-20.79,0,*69
1486213252.55,54191,10.56,72496.0,-0.79,-23.13,-21.17,0,*60
1486213253.8,54192,10.56,72494.5,-0.79,-22.67,-20.83,0,*6D
1486213255.04,54193,10.56,72490.5,-0.79,-22.11,-20.63,0,*63
1486213256.26,54194,10.56,72492.5,-0.77,-21.77,-20.15,0,*68
1486213257.47,54195,10.56,72490.5,-0.77,-22.53,-20.63,0,*6D
1486213258.73,54196,10.56,72492.3,-0.77,-22.21,-20.49,0,*63
1486213259.94,54197,10.56,72494.8,-0.73,-22.93,-20.73,0,*66
1486213261.21,54198,10.56,72492.5,-0.75,-23.95,-21.53,0,*6B
1486213262.44,54199,10.56,72494.0,-0.77,-23.95,-21.73,0,*6A
1486213263.66,54200,10.56,72490.5,-0.75,-23.59,-21.43,0,*68
1486213264.92,54201,10.56,72490.0,-0.75,-23.79,-21.27,0,*69
1486213266.18,54202,10.56,72490.3,-0.75,-23.75,-21.53,0,*65
1486213267.46,54203,10.56,72492.5,-0.75,-23.95,-21.57,0,*6E
1486213268.66,54204,10.56,72490.0,-0.73,-24.47,-22.37,0,*62
1486213269.93,54205,10.56,72492.3,-0.71,-24.67,-22.73,0,*63
1486213271.16,54206,10.56,72490.0,-0.73,-24.61,-23.33,0,*61
1486213272.4,54207,10.56,72488.8,-0.73,-24.67,-23.49,0,*6B
1486213273.66,54208,10.56,72492.3,-0.73,-24.41,-22.77,0,*6C
1486213274.86,54209,10.56,72488.0,-0.73,-24.57,-22.63,0,*6F
1486213276.09,54210,10.56,72492.8,-0.73,-24.87,-22.97,0,*61
1486213277.31,54211,10.56,72490.3,-0.73,-24.15,-22.63,0,*60
1486213278.53,54212,10.56,72490.0,-0.73,-23.95,-22.37,0,*6D
1486213279.79,54213,10.56,72490.5,-0.71,-24.25,-22.63,0,*63
1486213280.99,54214,10.63,72494.3,-0.73,-25.13,-23.13,0,*64
1486213282.25,54215,10.56,72492.3,-0.71,-24.83,-23.09,0,*64
1486213283.48,54216,10.56,72494.3,-0.71,-24.35,-22.57,0,*60
1486213284.68,54217,10.63,72496.8,-0.73,-24.57,-22.83,0,*6E
1486213285.91,54218,10.56,72494.0,-0.73,-24.25,-22.83,0,*64
1486213287.13,54219,10.56,72492.8,-0.71,-23.89,-22.87,0,*62
1486213288.41,54220,10.56,72496.0,-0.71,-23.99,-22.73,0,*62
1486213289.6,54221,10.56,72496.0,-0.73,-23.89,-22.37,0,*60
1486213290.82,54222,10.56,72492.8,-0.71,-23.39,-21.93,0,*67
1486213292.05,54223,10.56,72496.5,-0.69,-23.75,-21.97,0,*63
1486213293.34,54224,10.56,72498.8,-0.71,-24.41,-22.47,0,*63
1486213294.61,54225,10.56,72496.5,-0.71,-24.87,-23.29,0,*61
1486213295.83,54226,10.56,72498.0,-0.71,-25.13,-23.59,0,*69
1486213297.06,54227,10.63,72498.5,-0.69,-24.71,-23.13,0,*6A
1486213298.3,54228,10.56,72496.5,-0.69,-24.41,-22.57,0,*67
1486213299.5,54229,10.56,72498.0,-0.69,-25.19,-23.09,0,*60
1486213300.75,54230,10.56,72496.0,-0.69,-24.67,-22.47,0,*6B
1486213302.01,54231,10.56,72496.0,-0.69,-24.25,-21.97,0,*62
1486213303.26,54232,10.56,72498.3,-0.63,-24.57,-21.83,0,*6B
1486213304.52,54233,10.63,72496.3,-0.69,-25.55,-22.73,0,*6F
1486213305.74,54234,10.56,72492.3,-0.67,-25.35,-22.87,0,*6B
1486213306.97,54235,10.63,72492.8,-0.67,-25.49,-22.97,0,*60
1486213308.25,54236,10.56,72492.8,-0.67,-25.81,-23.33,0,*68
1486213309.47,54237,10.56,72494.5,-0.67,-25.35,-22.83,0,*6C
1486213310.72,54238,10.56,72492.0,-0.63,-25.91,-23.19,0,*6B
1486213312.0,54239,10.56,72494.3,-0.63,-26.55,-24.25,0,*69
1486213313.23,54240,10.56,72492.8,-0.63,-27.03,-25.13,0,*61
1486213314.43,54241,10.56,72494.5,-0.61,-27.71,-25.87,0,*6A
1486213315.68,54242,10.63,72496.3,-0.61,-28.05,-26.55,0,*69
1486213316.93,54243,10.63,72494.3,-0.61,-28.63,-26.77,0,*68
1486213318.16,54244,10.63,72496.8,-0.61,-28.63,-27.03,0,*6D
1486213319.41,54245,10.56,72488.8,-0.63,-27.55,-26.71,0,*60
1486213320.62,54246,10.56,72494.0,-0.61,-26.39,-25.39,0,*65
1486213321.87,54247,10.63,72496.0,-0.61,-25.75,-24.87,0,*6B
1486213323.09,54248,10.63,72492.8,-0.61,-25.87,-24.87,0,*69
1486213324.3,54249,10.56,72492.0,-0.61,-26.45,-24.77,0,*6A
1486213325.55,54250,10.63,72496.3,-0.59,-27.89,-26.17,0,*6C
1486213326.83,54251,10.63,72494.8,-0.59,-27.19,-25.55,0,*61
1486213328.03,54252,10.56,72492.3,-0.57,-27.71,-26.39,0,*6B
1486213329.27,54253,10.56,72490.8,-0.57,-28.53,-28.21,0,*62
1486213330.52,54254,10.56,72494.8,-0.57,-29.17,-28.25,0,*60
1486213331.78,54255,10.63,72492.8,-0.59,-29.23,-28.25,0,*68
1486213333.03,54256,10.63,72492.3,-0.59,-30.61,-29.23,0,*62
1486213334.22,54257,10.56,72494.3,-0.61,-31.17,-29.95,0,*65
1486213335.45,54258,10.63,72498.3,-0.63,-31.01,-30.33,0,*6B
1486213336.64,54259,10.63,72494.5,-0.61,-31.05,-30.11,0,*6C
1486213337.92,54260,10.63,72496.3,-0.67,-32.19,-31.39,0,*65
1486213339.18,54261,10.56,72494.5,-0.69,-31.85,-31.51,0,*62
1486213340.43,54262,10.63,72496.0,-0.69,-31.61,-31.11,0,*6F
1486213341.65,54263,10.63,72496.0,-0.73,-32.45,-31.67,0,*61
1486213342.88,54264,10.63,72498.5,-0.71,-32.91,-32.39,0,*65
1486213344.08,54265,10.56,72492.3,-0.73,-32.57,-31.01,0,*64
1486213345.28,54266,10.56,72488.8,-0.73,-31.33,-29.67,0,*6F
1486213346.52,54267,10.63,72498.5,-0.75,-30.61,-29.07,0,*68
1486213347.77,54268,10.63,72496.3,-0.75,-30.27,-29.29,0,*69
1486213348.99,54269,10.63,72494.3,-0.75,-30.67,-29.61,0,*60
1486213350.25,54270,10.63,72494.3,-0.77,-30.95,-30.01,0,*69
1486213351.47,54271,10.63,72498.0,-0.75,-30.33,-29.61,0,*68
1486213352.7,54272,10.63,72498.8,-0.77,-29.57,-29.51,0,*60
1486213353.93,54273,10.63,72492.5,-0.75,-27.07,-27.77,0,*62
1486213355.18,54274,10.63,72494.8,-0.73,-26.93,-27.45,0,*6E
1486213356.39,54275,10.63,72494.8,-0.73,-27.19,-26.87,0,*63
1486213357.62,54276,10.63,72490.3,-0.73,-27.45,-25.91,0,*6D
1486213358.84,54277,10.63,72490.3,-0.73,-28.15,-25.55,0,*6E
1486213360.08,54278,10.63,72492.0,-0.71,-30.45,-27.19,0,*65
1486213361.3,54279,10.63,72490.8,-0.73,-30.83,-28.75,0,*69
1486213362.53,54280,10.63,72488.5,-0.75,-29.83,-27.77,0,*6C
1486213363.75,54281,10.63,72492.3,-0.77,-30.05,-27.77,0,*69
1486213364.99,54282,10.63,72492.5,-0.77,-30.39,-28.43,0,*6D
1486213366.22,54283,10.63,72488.5,-0.75,-29.07,-27.55,0,*63
1486213367.48,54284,10.63,72492.3,-0.79,-26.07,-25.29,0,*6E
1486213368.74,54285,10.63,72492.0,-0.79,-25.45,-24.15,0,*64
1486213369.97,54286,10.63,72494.0,-0.79,-27.77,-25.23,0,*60
1486213371.25,54287,10.63,72490.0,-0.79,-28.79,-26.93,0,*68
1486213372.48,54288,10.63,72488.0,-0.81,-29.17,-27.07,0,*65
1486213373.73,54289,10.63,72494.0,-0.81,-31.61,-29.39,0,*6F
1486213374.96,54290,10.63,72492.5,-0.81,-30.27,-28.47,0,*6C
1486213376.2,54291,10.63,72492.0,-0.83,-30.27,-27.55,0,*63
1486213377.48,54292,10.63,72494.8,-0.83,-32.07,-29.01,0,*6F
1486213378.7,54293,10.63,72492.8,-0.83,-32.35,-31.01,0,*66
1486213379.95,54294,10.63,72488.5,-0.85,-30.51,-31.01,0,*67
1486213381.23,54295,10.63,72490.0,-0.83,-25.81,-26.33,0,*6E
1486213382.5,54296,10.63,72492.3,-0.83,-24.71,-22.93,0,*6D
1486213383.75,54297,10.63,72498.0,-0.85,-27.71,-24.25,0,*62
1486213385.0,54298,10.56,72488.8,-0.85,-29.83,-27.61,0,*6D
1486213386.23,54299,10.63,72494.8,-0.85,-29.07,-27.07,0,*60
1486213387.48,54300,10.63,72496.3,-0.85,-29.45,-27.39,0,*6A
1486213388.73,54301,10.63,72498.8,-0.85,-29.29,-28.53,0,*62
1486213389.99,54302,10.63,72494.0,-0.83,-29.79,-29.89,0,*64
1486213391.21,54303,10.63,72490.5,-0.83,-31.01,-30.45,0,*6B
1486213392.49,54304,10.63,72494.5,-0.85,-31.91,-31.95,0,*6F
1486213393.72,54305,10.63,72490.8,-0.83,-30.83,-29.95,0,*63
1486213395.0,54306,10.63,72492.8,-0.83,-30.61,-29.01,0,*61
1486213396.23,54307,10.63,72492.0,-0.83,-30.23,-29.57,0,*65
1486213397.48,54308,10.63,72492.8,-0.81,-29.89,-29.17,0,*64
1486213398.72,54309,10.63,72498.8,-0.83,-28.85,-27.71,0,*64
1486213399.97,54310,10.63,72494.0,-0.83,-30.23,-28.59,0,*6C
1486213401.25,54311,10.63,72492.3,-0.79,-31.39,-30.39,0,*6D
1486213402.51,54312,10.63,72498.0,-0.81,-31.51,-30.61,0,*6A
1486213403.73,54313,10.63,72492.8,-0.81,-31.33,-30.39,0,*62
1486213404.97,54314,10.63,72492.3,-0.81,-31.29,-30.73,0,*60
1486213406.22,54315,10.63,72494.8,-0.81,-30.61,-29.73,0,*64
1486213407.46,54316,10.63,72496.3,-0.79,-30.23,-29.29,0,*69
1486213408.73,54317,10.63,72494.0,-0.79,-29.73,-28.79,0,*61
1486213409.96,54318,10.63,72490.3,-0.81,-30.27,-28.91,0,*66
1486213411.22,54319,10.63,72492.5,-0.79,-31.05,-30.17,0,*66
1486213412.5,54320,10.63,72496.5,-0.79,-30.17,-29.35,0,*66
1486213413.77,54321,10.63,72498.0,-0.79,-30.77,-30.05,0,*6A
1486213415.03,54322,10.63,72494.0,-0.77,-30.77,-30.01,0,*63
1486213416.28,54323,10.63,72492.0,-0.75,-30.83,-30.51,0,*6E
1486213417.54,54324,10.63,72494.5,-0.75,-31.33,-30.89,0,*66
1486213418.8,54325,10.63,72492.8,-0.75,-31.67,-30.73,0,*63
1486213420.03,54326,10.63,72492.5,-0.75,-31.79,-31.17,0,*6C
1486213421.29,54327,10.63,72494.0,-0.77,-30.95,-30.17,0,*6D
1486213422.54,54328,10.63,72490.0,-0.75,-31.51,-31.01,0,*6F
1486213423.79,54329,10.63,72488.8,-0.75,-31.23,-31.05,0,*6F
1486213425.07,54330,10.63,72490.5,-0.75,-32.07,-31.73,0,*63
1486213426.31,54331,10.63,72492.8,-0.77,-31.45,-30.77,0,*60
1486213427.52,54332,10.63,72494.0,-0.77,-31.79,-31.45,0,*6C
1486213428.78,54333,10.63,72490.3,-0.75,-31.33,-31.23,0,*61
1486213430.0,54334,10.63,72492.8,-0.77,-31.39,-31.29,0,*64
1486213431.23,54335,10.63,72490.5,-0.77,-32.01,-31.73,0,*62
1486213432.47,54336,10.63,72490.8,-0.75,-31.17,-30.83,0,*69
1486213433.69,54337,10.63,72488.3,-0.75,-31.17,-31.01,0,*63
1486213434.94,54338,10.63,72494.3,-0.75,-31.05,-30.51,0,*6B
1486213436.17,54339,10.63,72488.0,-0.75,-31.67,-31.17,0,*6D
1486213437.39,54340,10.63,72488.0,-0.73,-31.73,-31.67,0,*67
1486213438.61,54341,10.63,72492.8,-0.73,-31.79,-31.57,0,*6F
1486213439.83,54342,10.63,72492.3,-0.73,-31.79,-31.57,0,*6C
1486213441.09,54343,10.63,72492.3,-0.71,-31.61,-31.17,0,*62
1486213442.31,54344,10.63,72492.5,-0.73,-31.57,-31.05,0,*61
1486213443.57,54345,10.63,72494.3,-0.73,-31.91,-31.51,0,*6B
1486213444.79,54346,10.63,72492.3,-0.73,-31.57,-31.17,0,*60
1486213446.05,54347,10.63,72494.0,-0.75,-31.51,-31.17,0,*61
1486213447.27,54348,10.63,72492.0,-0.75,-30.67,-30.11,0,*6D
1486213448.5,54349,10.63,72494.5,-0.73,-31.39,-31.17,0,*67
1486213449.74,54350,10.63,72492.5,-0.73,-31.91,-31.57,0,*69
1486213450.99,54351,10.63,72492.5,-0.73,-31.57,-31.39,0,*6A
1486213452.22,54352,10.63,72496.0,-0.73,-31.73,-31.33,0,*65
1486213453.45,54353,10.63,72494.3,-0.73,-31.17,-30.73,0,*63
1486213454.7,54354,10.63,72494.5,-0.73,-31.95,-31.57,0,*69
1486213455.92,54355,10.63,72494.8,-0.73,-31.57,-31.01,0,*65
1486213457.17,54356,10.63,72496.5,-0.71,-31.01,-30.55,0,*67
1486213458.44,54357,10.63,72492.0,-0.71,-31.85,-31.51,0,*6F
1486213459.66,54358,10.63,72496.8,-0.73,-31.01,-30.55,0,*6B
1486213460.91,54359,10.63,72494.5,-0.71,-31.73,-31.33,0,*6C
1486213462.14,54360,10.63,72494.0,-0.71,-31.45,-31.17,0,*65
1486213463.42,54361,10.63,72494.0,-0.71,-31.61,-31.11,0,*64
1486213464.65,54362,10.63,72498.0,-0.69,-31.85,-31.29,0,*6F
1486213465.85,54363,10.63,72494.5,-0.69,-31.67,-31.01,0,*68
1486213467.11,54364,10.63,72494.3,-0.69,-31.11,-29.89,0,*67
1486213468.39,54365,10.63,72494.5,-0.67,-31.61,-30.95,0,*6A
1486213469.59,54366,10.63,72492.8,-0.69,-31.17,-30.45,0,*6B
1486213470.84,54367,10.63,72496.3,-0.69,-30.77,-30.05,0,*69
1486213472.1,54368,10.63,72494.0,-0.67,-31.23,-30.45,0,*6C
1486213473.29,54369,10.63,72496.3,-0.69,-31.01,-30.45,0,*63
1486213474.59,54370,10.63,72498.0,-0.67,-31.11,-30.77,0,*65
1486213475.82,54371,10.63,72492.8,-0.69,-31.61,-31.29,0,*67
1486213477.11,54372,10.63,72492.0,-0.67,-31.23,-30.89,0,*67
1486213478.39,54373,10.63,72492.5,-0.67,-30.95,-30.51,0,*6F
1486213479.68,54374,10.63,72498.0,-0.67,-31.23,-30.73,0,*64
1486213480.96,54375,10.63,72498.3,-0.67,-31.11,-30.73,0,*64
1486213482.22,54376,10.63,72494.0,-0.67,-31.29,-30.89,0,*69
1486213483.5,54377,10.63,72498.0,-0.67,-30.95,-30.51,0,*6B
1486213484.79,54378,10.63,72496.5,-0.67,-30.17,-30.17,0,*6C
1486213486.01,54379,10.63,72492.3,-0.63,-30.27,-29.79,0,*6A
1486213487.22,54380,10.63,72492.8,-0.61,-30.83,-30.27,0,*63
1486213488.44,54381,10.63,72498.0,-0.61,-31.01,-30.89,0,*6D
1486213489.69,54382,10.63,72496.0,-0.59,-30.83,-30.67,0,*6E
1486213490.95,54383,10.63,72496.5,-0.59,-31.17,-30.61,0,*65
1486213492.2,54384,10.63,72496.8,-0.59,-30.77,-30.23,0,*63
1486213493.46,54385,10.63,72494.3,-0.59,-30.27,-29.89,0,*6F
1486213494.68,54386,10.63,72494.8,-0.57,-30.23,-29.39,0,*6D
1486213495.9,54387,10.63,72494.8,-0.57,-29.79,-29.01,0,*60
1486213497.16,54388,10.63,72496.3,-0.55,-30.77,-29.67,0,*6B
1486213498.44,54389,10.63,72496.0,-0.55,-31.39,-30.61,0,*6F
1486213499.69,54390,10.63,72492.0,-0.57,-31.85,-31.51,0,*60
1486213500.92,54391,10.63,72492.3,-0.57,-31.85,-31.33,0,*65
1486213502.13,54392,10.63,72492.8,-0.55,-32.35,-31.79,0,*62
1486213503.36,54393,10.63,72498.8,-0.59,-32.39,-32.01,0,*6F
1486213504.61,54394,10.63,72492.5,-0.59,-32.35,-31.73,0,*62
1486213505.86,54395,10.63,72494.3,-0.59,-32.23,-31.91,0,*68
1486213507.12,54396,10.63,72492.5,-0.59,-32.39,-32.19,0,*63
1486213508.37,54397,10.63,72494.3,-0.59,-32.35,-32.07,0,*61
1486213509.65,54398,10.63,72494.5,-0.59,-32.19,-31.85,0,*69
1486213510.9,54399,10.63,72494.0,-0.57,-31.91,-31.51,0,*6C
1486213512.13,54400,10.63,72492.3,-0.59,-32.01,-31.67,0,*6A
1486213513.39,54401,10.63,72494.8,-0.59,-31.57,-31.33,0,*6A
1486213514.61,54402,10.63,72496.3,-0.57,-31.91,-31.67,0,*6C
1486213515.86,54403,10.63,72494.3,-0.59,-31.67,-31.51,0,*6F
1486213517.11,54404,10.63,72494.5,-0.61,-31.91,-31.57,0,*6C
1486213518.33,54405,10.63,72494.0,-0.61,-32.39,-31.73,0,*6A
1486213519.59,54406,10.63,72494.5,-0.59,-32.07,-31.17,0,*6D
1486213520.86,54407,10.63,72496.0,-0.59,-32.01,-31.51,0,*68
1486213522.11,54408,10.63,72494.5,-0.59,-32.35,-32.07,0,*60
1486213523.35,54409,10.63,72494.3,-0.61,-32.29,-31.57,0,*61
1486213524.63,54410,10.63,72496.0,-0.63,-32.63,-32.07,0,*63
1486213525.88,54411,10.63,72498.3,-0.63,-32.39,-31.91,0,*61
1486213527.11,54412,10.63,72492.0,-0.61,-32.13,-31.91,0,*68
1486213528.38,54413,10.69,72498.0,-0.63,-32.63,-32.63,0,*62
1486213529.64,54414,10.63,72492.5,-0.61,-32.85,-32.79,0,*64
1486213530.86,54415,10.63,72492.5,-0.63,-32.39,-32.23,0,*6F
1486213532.15,54416,10.63,72492.5,-0.63,-31.61,-31.39,0,*6A
1486213533.37,54417,10.63,72496.3,-0.61,-31.79,-31.39,0,*60
1486213534.65,54418,10.63,72492.8,-0.63,-31.51,-31.23,0,*6C
1486213535.88,54419,10.69,72496.5,-0.61,-31.39,-31.17,0,*66
1486213537.11,54420,10.63,72488.0,-0.59,-31.33,-31.17,0,*6D
1486213538.36,54421,10.63,72490.0,-0.59,-30.51,-30.27,0,*6B
1486213539.65,54422,10.63,72488.8,-0.59,-30.95,-30.61,0,*62
1486213540.93,54423,10.63,72492.0,-0.59,-30.05,-29.89,0,*64
1486213542.13,54424,10.63,72494.3,-0.57,-30.23,-29.61,0,*6F
1486213543.36,54425,10.63,72490.8,-0.57,-30.95,-30.27,0,*69
1486213544.56,54426,10.63,72490.5,-0.57,-31.33,-30.83,0,*69
1486213545.79,54427,10.63,72490.3,-0.53,-31.39,-31.05,0,*69
1486213547.06,54428,10.63,72492.3,-0.55,-31.51,-31.11,0,*6B
1486213548.29,54429,10.63,72494.5,-0.53,-31.23,-30.45,0,*69
1486213549.57,54430,10.63,72490.3,-0.55,-31.61,-31.23,0,*60
1486213550.83,54431,10.63,72490.5,-0.55,-31.29,-30.89,0,*6C
1486213552.05,54432,10.63,72488.5,-0.53,-31.29,-30.95,0,*64
1486213553.26,54433,10.63,72492.3,-0.53,-31.79,-31.29,0,*66
1486213554.5,54434,10.69,72492.5,-0.53,-31.39,-30.95,0,*63
1486213555.76,54435,10.63,72492.8,-0.55,-32.01,-31.61,0,*66
1486213556.96,54436,10.69,72494.8,-0.53,-31.45,-31.05,0,*62
1486213558.21,54437,10.63,72494.5,-0.53,-32.19,-31.85,0,*61
1486213559.45,54438,10.63,72490.5,-0.53,-31.85,-31.45,0,*64
1486213560.65,54439,10.63,72492.0,-0.53,-31.79,-31.45,0,*66
1486213561.89,54440,10.63,72492.8,-0.51,-31.45,-31.17,0,*62
1486213563.13,54441,10.63,72490.0,-0.51,-31.79,-31.45,0,*6B
1486213564.36,54442,10.63,72494.0,-0.49,-31.79,-31.39,0,*6A
1486213565.61,54443,10.69,72492.5,-0.49,-31.95,-31.73,0,*67
1486213566.86,54444,10.69,72494.3,-0.51,-31.79,-31.57,0,*6D
1486213568.12,54445,10.63,72490.3,-0.51,-31.91,-31.45,0,*69
1486213569.35,54446,10.63,72490.8,-0.51,-31.33,-31.01,0,*62
1486213570.59,54447,10.63,72488.3,-0.51,-31.79,-31.45,0,*6D
1486213571.87,54448,10.69,72494.5,-0.51,-31.39,-30.89,0,*67
1486213573.1,54449,10.63,72492.3,-0.49,-30.89,-30.27,0,*61
1486213574.33,54450,10.63,72490.8,-0.49,-31.17,-30.51,0,*6E
1486213575.58,54451,10.63,72490.8,-0.47,-31.57,-31.33,0,*60
1486213576.81,54452,10.63,72488.8,-0.49,-31.61,-31.33,0,*68
1486213578.03,54453,10.63,72488.0,-0.47,-31.33,-31.01,0,*61
1486213579.28,54454,10.63,72492.8,-0.47,-31.67,-31.39,0,*6C
1486213580.51,54455,10.63,72492.5,-0.47,-31.29,-31.17,0,*6B
1486213581.79,54456,10.63,72492.0,-0.47,-31.51,-31.11,0,*61
1486213582.99,54457,10.63,72492.0,-0.45,-31.29,-31.01,0,*6C
1486213584.22,54458,10.69,72494.8,-0.45,-31.51,-31.17,0,*6B
1486213585.51,54459,10.63,72492.8,-0.47,-31.11,-30.77,0,*6B
1486213586.73,54460,10.63,72494.3,-0.45,-31.51,-31.17,0,*60
1486213587.99,54461,10.63,72494.5,-0.45,-31.51,-31.11,0,*67
1486213589.26,54462,10.69,72494.8,-0.43,-31.51,-31.23,0,*63
1486213590.55,54463,10.63,72492.8,-0.43,-31.23,-30.77,0,*67
1486213591.78,54464,10.63,72490.0,-0.39,-31.05,-30.67,0,*68
1486213593.07,54465,10.69,72492.5,-0.39,-31.57,-31.23,0,*6F
1486213594.3,54466,10.63,72494.0,-0.39,-31.45,-31.05,0,*6B
1486213595.59,54467,10.69,72494.8,-0.39,-31.57,-31.23,0,*6D
1486213596.84,54468,10.63,72490.8,-0.37,-31.57,-31.23,0,*6C
1486213598.08,54469,10.69,72492.5,-0.37,-31.73,-31.29,0,*61
1486213599.33,54470,10.69,72494.3,-0.37,-31.91,-31.39,0,*64
1486213600.58,54471,10.63,72490.8,-0.37,-31.73,-31.39,0,*69
1486213601.84,54472,10.69,72492.8,-0.37,-31.91,-31.61,0,*6B
1486213603.05,54473,10.63,72488.8,-0.37,-31.45,-31.17,0,*62
1486213604.34,54474,10.69,72494.3,-0.35,-31.11,-30.77,0,*61
1486213605.63,54475,10.69,72496.0,-0.35,-31.11,-30.77,0,*60
1486213606.88,54476,10.69,72494.8,-0.35,-31.33,-30.95,0,*6F
1486213608.17,54477,10.69,72492.3,-0.35,-31.11,-30.61,0,*65
1486213609.4,54478,10.63,72488.3,-0.33,-31.57,-31.17,0,*6E
1486213610.69,54479,10.63,72490.0,-0.31,-31.11,-30.61,0,*6F
1486213611.93,54480,10.69,72494.0,-0.33,-31.17,-30.77,0,*6A
1486213613.14,54481,10.69,72492.5,-0.33,-32.01,-31.67,0,*6F
1486213614.39,54482,10.69,72492.0,-0.31,-32.01,-31.85,0,*62
1486213615.65,54483,10.69,72492.3,-0.33,-32.29,-32.07,0,*62
1486213616.9,54484,10.69,72492.0,-0.33,-31.91,-31.85,0,*6C
1486213618.15,54485,10.69,72492.0,-0.33,-31.91,-31.85,0,*6D
1486213619.38,54486,10.69,72494.3,-0.33,-31.67,-31.39,0,*60
1486213620.6,54487,10.69,72494.3,-0.31,-32.23,-32.23,0,*68
1486213621.83,54488,10.69,72494.3,-0.33,-31.85,-31.67,0,*69
1486213623.06,54489,10.69,72492.5,-0.31,-31.33,-31.17,0,*60
1486213624.3,54490,10.69,72488.8,-0.33,-31.23,-31.01,0,*6C
1486213625.59,54491,10.69,72492.5,-0.31,-31.11,-30.61,0,*69
1486213626.85,54492,10.69,72494.0,-0.29,-31.61,-31.23,0,*63
1486213628.1,54493,10.69,72490.5,-0.29,-32.29,-31.91,0,*64
1486213629.33,54494,10.69,72490.8,-0.29,-31.45,-31.11,0,*62
1486213630.57,54495,10.69,72490.8,-0.29,-31.95,-31.45,0,*6F
1486213631.78,54496,10.69,72490.5,-0.29,-31.79,-31.05,0,*6A
1486213633.01,54497,10.69,72492.5,-0.31,-32.13,-31.45,0,*69
1486213634.25,54498,10.69,72488.8,-0.31,-32.01,-31.45,0,*65
1486213635.5,54499,10.69,72492.5,-0.31,-31.95,-31.79,0,*65
1486213636.76,54500,10.69,72488.5,-0.29,-32.19,-31.95,0,*68
1486213638.0,54501,10.69,72490.3,-0.29,-31.61,-31.45,0,*68
1486213639.23,54502,10.69,72494.8,-0.29,-31.39,-31.05,0,*62
1486213640.5,54503,10.69,72490.3,-0.27,-31.95,-31.73,0,*6A
1486213641.72,54504,10.69,72492.8,-0.27,-31.79,-31.79,0,*65
1486213642.97,54505,10.69,72492.3,-0.27,-31.39,-31.29,0,*65
1486213644.21,54506,10.69,72494.3,-0.29,-32.07,-31.79,0,*63
1486213645.45,54507,10.69,72490.8,-0.27,-32.29,-32.13,0,*6F
1486213646.72,54508,10.69,72488.8,-0.27,-31.91,-31.61,0,*66
1486213648.0,54509,10.63,72490.5,-0.27,-31.73,-31.57,0,*6E
1486213649.25,54510,10.69,72494.0,-0.29,-32.29,-32.07,0,*62
1486213650.52,54511,10.69,72494.3,-0.27,-32.29,-32.07,0,*6D
1486213651.78,54512,10.69,72494.3,-0.29,-31.73,-31.57,0,*6A
1486213653.02,54513,10.69,72494.0,-0.27,-32.29,-32.13,0,*6A
1486213654.3,54514,10.69,72490.8,-0.27,-31.73,-31.39,0,*6A
1486213655.55,54515,10.69,72490.0,-0.27,-31.73,-31.29,0,*6A
1486213656.83,54516,10.69,72494.0,-0.27,-31.57,-31.11,0,*64
1486213658.09,54517,10.69,72488.8,-0.25,-31.73,-31.23,0,*60
1486213659.34,54518,10.69,72492.0,-0.27,-32.63,-32.35,0,*6B
1486213660.61,54519,10.69,72492.0,-0.27,-31.91,-31.57,0,*63
1486213661.86,54520,10.69,72490.3,-0.27,-32.45,-32.13,0,*60
1486213663.14,54521,10.69,72490.0,-0.27,-31.57,-31.11,0,*60
1486213664.37,54522,10.69,72494.3,-0.27,-32.35,-31.73,0,*60
1486213665.63,54523,10.69,72492.3,-0.29,-32.45,-31.95,0,*60
1486213666.86,54524,10.69,72490.5,-0.27,-31.79,-31.29,0,*62
1486213668.08,54525,10.69,72490.0,-0.29,-32.35,-32.07,0,*69
1486213669.36,54526,10.69,72490.0,-0.27,-32.29,-32.07,0,*69
1486213670.61,54527,10.69,72490.8,-0.27,-31.57,-31.29,0,*6D
1486213671.84,54528,10.69,72486.8,-0.27,-31.29,-31.29,0,*6B
1486213673.07,54529,10.69,72488.8,-0.25,-31.39,-31.05,0,*67
1486213674.26,54530,10.69,72490.8,-0.25,-32.23,-32.01,0,*60
1486213675.52,54531,10.69,72490.8,-0.25,-31.85,-31.57,0,*6E
1486213676.75,54532,10.69,72490.5,-0.25,-31.85,-31.67,0,*6E
1486213677.95,54533,10.69,72492.8,-0.25,-32.01,-31.67,0,*60
1486213679.23,54534,10.69,72490.3,-0.23,-31.73,-31.85,0,*6B
1486213680.49,54535,10.69,72490.3,-0.25,-30.95,-30.61,0,*6E
1486213681.71,54536,10.69,72490.5,-0.25,-30.77,-30.11,0,*66
1486213682.97,54537,10.69,72490.0,-0.25,-31.23,-30.01,0,*66
1486213684.22,54538,10.69,72488.5,-0.23,-31.39,-30.33,0,*65
1486213685.45,54539,10.69,72490.3,-0.25,-31.51,-31.05,0,*68
1486213686.68,54540,10.69,72492.3,-0.25,-31.39,-31.01,0,*6C
1486213687.91,54541,10.69,72490.3,-0.25,-31.51,-31.33,0,*62
1486213689.18,54542,10.69,72488.5,-0.23,-32.07,-31.91,0,*6F
1486213690.46,54543,10.69,72492.5,-0.23,-31.85,-31.57,0,*6D
1486213691.68,54544,10.69,72494.0,-0.21,-31.61,-31.33,0,*60
1486213692.88,54545,10.69,72494.3,-0.21,-31.33,-31.01,0,*67
1486213694.11,54546,10.69,72488.8,-0.21,-31.29,-30.89,0,*6E
1486213695.4,54547,10.69,72490.3,-0.17,-31.61,-31.11,0,*66
1486213696.62,54548,10.69,72490.3,-0.21,-31.45,-30.95,0,*67